TimeCDT,TemperatureF,Dew PointF,Humidity,Sea Level PressureIn,VisibilityMPH,Wind Direction,Wind SpeedMPH,Gust SpeedMPH,PrecipitationIn,Events,Conditions,WindDirDegrees,DateUTC
12:53 AM,77.0,66.0,69,29.92,10.0,South,6.9,-,N/A,,Clear,190,2013-06-13 05:53:00
1:53 AM,75.0,64.9,71,29.93,10.0,SSW,8.1,-,N/A,,Clear,200,2013-06-13 06:53:00
2:53 AM,75.9,64.9,69,29.93,10.0,SSW,9.2,-,N/A,,Clear,200,2013-06-13 07:53:00
3:53 AM,73.0,64.9,76,29.93,10.0,SSW,6.9,-,N/A,,Clear,200,2013-06-13 08:53:00
4:53 AM,73.0,64.0,73,29.93,10.0,South,9.2,-,N/A,,Clear,190,2013-06-13 09:53:00
5:53 AM,72.0,64.9,78,29.95,10.0,South,8.1,-,N/A,,Clear,190,2013-06-13 10:53:00
6:53 AM,71.1,64.9,81,29.97,10.0,SW,3.5,-,N/A,,Clear,220,2013-06-13 11:53:00
7:53 AM,77.0,66.0,69,29.99,10.0,SSW,5.8,-,N/A,,Clear,210,2013-06-13 12:53:00
8:53 AM,84.0,66.0,55,30.00,10.0,SW,9.2,-,N/A,,Clear,220,2013-06-13 13:53:00
9:53 AM,90.0,64.9,43,30.00,10.0,West,13.8,-,N/A,,Clear,260,2013-06-13 14:53:00
10:53 AM,93.0,64.9,39,29.99,10.0,SW,10.4,-,N/A,,Clear,230,2013-06-13 15:53:00
11:53 AM,95.0,62.1,33,29.98,10.0,SSW,8.1,18.4,N/A,,Clear,210,2013-06-13 16:53:00
12:53 PM,97.0,61.0,30,29.97,10.0,SSW,11.5,19.6,N/A,,Clear,200,2013-06-13 17:53:00
1:53 PM,99.0,60.1,28,29.95,10.0,South,11.5,20.7,N/A,,Partly Cloudy,180,2013-06-13 18:53:00
2:53 PM,100.9,60.1,26,29.93,10.0,SSW,12.7,20.7,N/A,,Clear,210,2013-06-13 19:53:00
3:53 PM,100.9,59.0,25,29.90,10.0,SSE,13.8,23.0,N/A,,Clear,160,2013-06-13 20:53:00
4:53 PM,100.9,57.9,24,29.88,10.0,South,13.8,20.7,N/A,,Clear,170,2013-06-13 21:53:00
5:53 PM,100.0,57.9,25,29.86,10.0,SSE,13.8,19.6,N/A,,Clear,160,2013-06-13 22:53:00
6:53 PM,98.1,59.0,27,29.85,10.0,South,10.4,-,N/A,,Clear,170,2013-06-13 23:53:00
7:53 PM,95.0,59.0,30,29.85,10.0,SSE,12.7,-,N/A,,Clear,160,2013-06-14 00:53:00
8:53 PM,89.1,61.0,39,29.86,9.0,SSE,9.2,-,N/A,,Clear,150,2013-06-14 01:53:00
9:53 PM,87.1,64.9,48,29.88,10.0,SSE,11.5,-,N/A,,Clear,150,2013-06-14 02:53:00
10:53 PM,84.0,66.9,56,29.91,10.0,SE,10.4,-,N/A,,Clear,140,2013-06-14 03:53:00
11:53 PM,84.0,68.0,58,29.91,10.0,SSE,12.7,-,N/A,,Clear,150,2013-06-14 04:53:00